{"data":{"norad_id":66861,"epoch":"2026-09-19T06:20:48.784992Z","epoch_age_seconds":191115,"freshness":"STALE","line1":"1 66861U 25281P   26262.26445353  .00011831  00000+0  43866-3 0  9998","line2":"2 66861  42.9995 329.9712 0001223 260.3463  99.7250 15.27588003 45798","mean_motion":15.27588003,"eccentricity":0.0001223,"inclination_deg":42.9995,"raan_deg":329.9712,"arg_perigee_deg":260.3463,"mean_anomaly_deg":99.725,"bstar":0.00043866,"rev_number":4579,"period_min":94.266254852225,"perigee_km":482.18601215443,"apogee_km":483.86425241199,"semimajor_km":6861.1621322832,"source":"CELESTRAK","updated_at":"2026-09-21T09:00:36.028429Z"}}